EW5206 Weather Reports


Display with metric or nautical units.
time (UTC)temp
F
wind
direction
speed
MPH
gust
MPH
rain 1hr
in
rain 24hr
in
rain mn
in
humidity
%
barometer
mb
20260510174523 80 0.0 0.0 0.00 0.00 0.00 37 1014.2
20260510173022 80 0.0 0.0 0.00 0.00 0.00 36 1014.4
20260510171521 80 0.0 0.0 0.00 0.00 0.00 36 1014.4
20260510170021 81 0.0 0.0 0.00 0.00 0.00 36 1014.6
20260510164522 82 0.0 0.0 0.00 0.00 0.00 36 1014.6
20260510163021 82 0.0 0.0 0.00 0.00 0.00 36 1014.8
20260510161521 83 0.0 0.0 0.00 0.00 0.00 35 1014.7
20260510160025 84 0.0 0.0 0.00 0.00 0.00 35 1014.7
20260510154520 86 0.0 0.0 0.00 0.00 0.00 34 1014.9
20260510153020 88 0.0 0.0 0.00 0.00 0.00 34 1014.9
20260510151518 88 0.0 0.0 0.00 0.00 0.00 32 1014.8
20260510150020 89 0.0 0.0 0.00 0.00 0.00 32 1014.9
20260510144520 89 0.0 0.0 0.00 0.00 0.00 33 1014.8
20260510143016 87 0.0 0.0 0.00 0.00 0.00 35 1014.8
20260510141514 86 0.0 0.0 0.00 0.00 0.00 36 1015.0
20260510140001 84 0.0 0.0 0.00 0.00 0.00 40 1014.9
20260510134606 81 0.0 0.0 0.00 0.00 0.00 46 1015.2
20260510133053 77 0.0 0.0 0.00 0.00 0.00 50 1015.2
20260510131549 73 0.0 0.0 0.00 0.00 0.00 55 1015.2
20260510130044 69 0.0 0.0 0.00 0.00 0.00 61 1015.2
20260510124553 66 0.0 0.0 0.00 0.00 0.00 65 1015.3
20260510123036 63 0.0 0.0 0.00 0.00 0.00 70 1015.1
20260510121531 58 0.0 0.0 0.00 0.00 0.00 79 1015.1
20260510120031 55 0.0 0.0 0.00 0.00 0.00 85 1014.9
20260510114536 53 0.0 0.0 0.00 0.00 0.00 88 1015.0
20260510113031 52 0.0 0.0 0.00 0.00 0.00 88 1014.7
20260510111525 51 0.0 0.0 0.00 0.00 0.00 87 1014.5
20260510110027 51 0.0 0.0 0.00 0.00 0.00 86 1014.2
20260510104530 51 0.0 0.0 0.00 0.00 0.00 83 1013.8
20260510103015 52 0.0 0.0 0.00 0.00 0.00 82 1013.6
20260510101512 53 0.0 0.0 0.00 0.00 0.00 81 1013.3
20260510100011 53 0.0 0.0 0.00 0.00 0.00 82 1013.2
20260510094521 54 0.0 0.0 0.00 0.00 0.00 84 1013.1
20260510093009 54 0.0 0.0 0.00 0.00 0.00 84 1013.0
20260510091508 53 0.0 0.0 0.00 0.00 0.00 84 1012.9
20260510090006 53 0.0 0.0 0.00 0.00 0.00 84 1012.8
20260510084505 53 0.0 0.0 0.00 0.00 0.00 84 1012.8
20260510083004 53 0.0 0.0 0.00 0.00 0.00 83 1012.6
20260510081505 53 0.0 0.0 0.00 0.00 0.00 82 1012.7
20260510080105 53 0.0 0.0 0.00 0.00 0.00 81 1012.5
20260510074559 53 0.0 0.0 0.00 0.00 0.00 80 1012.4
20260510073110 53 0.0 0.0 0.00 0.00 0.00 79 1012.3
20260510071559 53 0.0 0.0 0.00 0.00 0.00 79 1012.2
20260510070054 54 0.0 0.0 0.00 0.00 0.00 77 1012.2
20260510064553 54 0.0 0.0 0.00 0.00 0.00 76 1012.1
20260510063050 55 0.0 0.0 0.00 0.00 0.00 75 1012.1
20260510061559 55 0.0 0.0 0.00 0.00 0.00 75 1012.2
20260510060047 55 0.0 0.0 0.00 0.00 0.00 75 1012.0
20260510054557 56 0.0 0.0 0.00 0.00 0.00 74 1012.1
20260510053046 56 0.0 0.0 0.00 0.00 0.00 74 1012.3
20260510051542 56 0.0 0.0 0.00 0.00 0.00 73 1012.2
20260510050043 56 0.0 0.0 0.00 0.00 0.00 71 1012.5
20260510044545 57 0.0 0.0 0.00 0.00 0.00 70 1012.4
20260510043036 57 0.0 0.0 0.00 0.00 0.00 69 1012.4
20260510041540 58 0.0 0.0 0.00 0.00 0.00 68 1012.4
20260510040029 58 0.0 0.0 0.00 0.00 0.00 66 1012.3
20260510034527 58 0.0 0.0 0.00 0.00 0.00 67 1012.2
20260510033027 58 0.0 0.0 0.00 0.00 0.00 66 1012.2
20260510031545 59 0.0 0.0 0.00 0.00 0.00 66 1012.2
20260510030033 59 0.0 0.0 0.00 0.00 0.00 65 1012.2
20260510024526 59 0.0 0.0 0.00 0.00 0.00 64 1012.2
20260510023025 59 0.0 0.0 0.00 0.00 0.00 64 1012.0
20260510021531 60 0.0 0.0 0.00 0.00 0.00 64 1011.9
20260510020024 60 0.0 0.0 0.00 0.00 0.00 62 1011.8
20260510014525 60 0.0 0.0 0.00 0.00 0.00 61 1011.4
20260510013023 61 0.0 0.0 0.00 0.00 0.00 60 1011.1
20260510011523 62 0.0 0.0 0.00 0.00 0.00 59 1010.7
20260510010024 62 0.0 0.0 0.00 0.00 0.00 57 1010.5
20260510004522 63 0.0 0.0 0.00 0.00 0.00 56 1010.5
20260510003021 64 0.0 0.0 0.00 0.00 0.00 54 1010.5
20260510001520 65 0.0 0.0 0.00 0.00 0.00 52 1010.4
20260510000022 66 0.0 0.0 0.00 0.00 0.00 51 1010.2
20260509234520 66 0.0 0.0 0.00 0.00 0.00 50 1009.9
20260509233019 67 0.0 0.0 0.00 0.00 0.00 49 1009.7
20260509231519 68 0.0 0.0 0.00 0.00 0.00 48 1009.7
20260509230019 68 0.0 0.0 0.00 0.00 0.00 47 1009.5
20260509224519 69 0.0 0.0 0.00 0.00 0.00 46 1009.5
20260509223020 69 0.0 0.0 0.00 0.00 0.00 46 1009.5
20260509221517 70 0.0 0.0 0.00 0.00 0.00 44 1009.3
20260509220017 71 0.0 0.0 0.00 0.00 0.00 44 1009.3
20260509214516 71 0.0 0.0 0.00 0.00 0.00 43 1009.3
20260509213017 72 0.0 0.0 0.00 0.00 0.00 43 1009.1
20260509211517 72 0.0 0.0 0.00 0.00 0.00 42 1009.0
20260509210016 72 0.0 0.0 0.00 0.00 0.00 43 1008.9
20260509204516 72 0.0 0.0 0.00 0.00 0.00 43 1008.8
20260509203015 72 0.0 0.0 0.00 0.00 0.00 43 1008.6
20260509201516 72 0.0 0.0 0.00 0.00 0.00 43 1008.7
20260509200014 72 0.0 0.0 0.00 0.00 0.00 42 1008.6
20260509194513 72 0.0 0.0 0.00 0.00 0.00 40 1008.7
20260509193013 73 0.0 0.0 0.00 0.00 0.00 42 1008.7
20260509191512 73 0.0 0.0 0.00 0.00 0.00 41 1008.6
20260509190011 73 0.0 0.0 0.00 0.00 0.00 40 1008.8
20260509184515 73 0.0 0.0 0.00 0.00 0.00 41 1008.8
20260509183009 73 0.0 0.0 0.00 0.00 0.00 41 1008.9
20260509181507 73 0.0 0.0 0.00 0.00 0.00 40 1009.0
20260509180006 73 0.0 0.0 0.00 0.00 0.00 41 1009.2